WAT2067 LQSA-LYBE

Flight info

Callsign WAT2067
Flight time 0h 36m
Altitude 19000
Route VRANA Y88 KEB DCT SOMUN L5 ENUPU
Aircraft B738/M-SDE2E3FGHIRWXY/LB1

Departure

Time 2026-04-21 01:11
Airport Sarajevo International Airport (LQSA)

Arrival

Time 2026-04-21 01:48
Airport Belgrade Nikola Tesla Airport (LYBE)
Time Latitude Longitude Altitude Speed Heading
2026-04-21 00:50 43.82536 18.33627 1686 ft 0 kts 27°
2026-04-21 01:04 43.82521 18.33615 1686 ft 4 kts 33°
2026-04-21 01:05 43.82500 18.33592 1686 ft 4 kts 50°
2026-04-21 01:05 43.82487 18.33562 1685 ft 4 kts 86°
2026-04-21 01:05 43.82490 18.33539 1687 ft 1 kts 116°
2026-04-21 01:05 43.82491 18.33535 1687 ft 0 kts 116°
2026-04-21 01:07 43.82491 18.33536 1687 ft 1 kts 116°
2026-04-21 01:07 43.82470 18.33596 1684 ft 14 kts 116°
2026-04-21 01:08 43.82413 18.33747 1685 ft 18 kts 118°
2026-04-21 01:08 43.82356 18.33900 1691 ft 18 kts 116°
2026-04-21 01:08 43.82301 18.34048 1697 ft 17 kts 117°
2026-04-21 01:08 43.82247 18.34190 1702 ft 16 kts 117°
2026-04-21 01:09 43.82201 18.34318 1706 ft 14 kts 117°
2026-04-21 01:09 43.82158 18.34434 1708 ft 13 kts 117°
2026-04-21 01:09 43.82116 18.34545 1711 ft 13 kts 120°
2026-04-21 01:09 43.82052 18.34622 1713 ft 12 kts 165°
2026-04-21 01:10 43.81969 18.34604 1715 ft 12 kts 206°
2026-04-21 01:10 43.81947 18.34503 1713 ft 13 kts 290°
2026-04-21 01:10 43.82003 18.34354 1710 ft 41 kts 297°
2026-04-21 01:10 43.82277 18.33621 1697 ft 127 kts 297°
2026-04-21 01:11 43.82792 18.32254 1852 ft 184 kts 297°
2026-04-21 01:11 43.83418 18.30598 2788 ft 195 kts 298°
2026-04-21 01:11 43.84041 18.28941 3711 ft 206 kts 297°
2026-04-21 01:11 43.84740 18.27066 3979 ft 233 kts 297°
2026-04-21 01:12 43.85507 18.24989 4423 ft 256 kts 297°
2026-04-21 01:12 43.86103 18.22618 5251 ft 263 kts 272°
2026-04-21 01:12 43.85743 18.20185 6364 ft 258 kts 243°
2026-04-21 01:12 43.84682 18.18164 7273 ft 262 kts 237°
2026-04-21 01:13 43.84143 18.15778 8141 ft 263 kts 265°
2026-04-21 01:13 43.83960 18.13229 9013 ft 268 kts 262°
2026-04-21 01:13 43.83659 18.10668 9952 ft 271 kts 260°
2026-04-21 01:13 43.83311 18.08099 10832 ft 271 kts 260°
2026-04-21 01:14 43.82947 18.05531 11678 ft 273 kts 260°
2026-04-21 01:14 43.82579 18.02958 12369 ft 282 kts 260°
2026-04-21 01:14 43.82180 18.00183 12596 ft 306 kts 260°
2026-04-21 01:14 43.81848 17.97161 12780 ft 329 kts 271°
2026-04-21 01:15 43.82404 17.94006 12963 ft 351 kts 295°
2026-04-21 01:15 43.83875 17.91203 13303 ft 369 kts 314°
2026-04-21 01:15 43.85985 17.89118 13986 ft 379 kts 330°
2026-04-21 01:15 43.88533 17.88017 14637 ft 389 kts 348°
2026-04-21 01:16 43.91270 17.88094 15300 ft 400 kts
2026-04-21 01:16 43.93954 17.89270 15937 ft 411 kts 21°
2026-04-21 01:16 43.96374 17.91492 16525 ft 425 kts 38°
2026-04-21 01:16 43.98325 17.94634 17081 ft 435 kts 50°
2026-04-21 01:17 44.00158 17.98019 17625 ft 441 kts 49°
2026-04-21 01:17 44.02019 18.01452 18177 ft 446 kts 50°
2026-04-21 01:17 44.03891 18.04921 18623 ft 452 kts 50°
2026-04-21 01:17 44.05774 18.08429 18972 ft 453 kts 50°
2026-04-21 01:18 44.07683 18.11990 18985 ft 464 kts 50°
2026-04-21 01:18 44.08971 18.14393 18993 ft 469 kts 50°
2026-04-21 01:18 44.10923 18.18044 18987 ft 469 kts 50°
2026-04-21 01:18 44.12855 18.21666 18998 ft 464 kts 50°
2026-04-21 01:19 44.14771 18.25263 19001 ft 462 kts 50°
2026-04-21 01:19 44.16688 18.28858 18988 ft 461 kts 50°
2026-04-21 01:19 44.18603 18.32453 18994 ft 461 kts 50°
2026-04-21 01:19 44.20518 18.36048 18988 ft 462 kts 50°
2026-04-21 01:20 44.22432 18.39652 18999 ft 462 kts 50°
2026-04-21 01:20 44.24344 18.43254 18992 ft 462 kts 50°
2026-04-21 01:20 44.26261 18.46868 19027 ft 464 kts 50°
2026-04-21 01:20 44.28188 18.50503 19015 ft 465 kts 50°
2026-04-21 01:21 44.30082 18.54088 19028 ft 465 kts 50°
2026-04-21 01:21 44.32002 18.57725 19018 ft 465 kts 50°
2026-04-21 01:21 44.33920 18.61360 19022 ft 464 kts 50°
2026-04-21 01:21 44.35830 18.64985 19007 ft 462 kts 51°
2026-04-21 01:22 44.37733 18.68605 19036 ft 461 kts 50°
2026-04-21 01:22 44.39635 18.72223 19023 ft 461 kts 51°
2026-04-21 01:22 44.41533 18.75839 19041 ft 461 kts 51°
2026-04-21 01:22 44.43436 18.79470 19021 ft 464 kts 51°
2026-04-21 01:23 44.45345 18.83116 19025 ft 466 kts 51°
2026-04-21 01:23 44.47263 18.86783 19022 ft 467 kts 51°
2026-04-21 01:23 44.49183 18.90461 19024 ft 468 kts 51°
2026-04-21 01:23 44.51110 18.94155 19008 ft 469 kts 51°
2026-04-21 01:24 44.53030 18.97842 19014 ft 468 kts 51°
2026-04-21 01:24 44.54947 19.01529 19018 ft 468 kts 51°
2026-04-21 01:24 44.56837 19.05179 19022 ft 468 kts 52°
2026-04-21 01:24 44.58526 19.09121 19019 ft 475 kts 62°
2026-04-21 01:25 44.59704 19.13467 19027 ft 479 kts 72°
2026-04-21 01:25 44.60380 19.18057 19020 ft 481 kts 83°
2026-04-21 01:25 44.60706 19.22724 19022 ft 481 kts 84°
2026-04-21 01:25 44.61018 19.27409 19015 ft 482 kts 84°
2026-04-21 01:26 44.61364 19.32087 19009 ft 481 kts 82°
2026-04-21 01:26 44.62190 19.36613 19001 ft 478 kts 63°
2026-04-21 01:26 44.63888 19.40563 19015 ft 471 kts 49°
2026-04-21 01:26 44.65934 19.44142 19008 ft 469 kts 47°
2026-04-21 01:27 44.68005 19.47693 19002 ft 469 kts 47°
2026-04-21 01:27 44.70064 19.51253 19012 ft 470 kts 47°
2026-04-21 01:27 44.72113 19.54847 19006 ft 470 kts 47°
2026-04-21 01:27 44.74127 19.58427 18993 ft 463 kts 47°
2026-04-21 01:28 44.76084 19.61936 18987 ft 446 kts 47°
2026-04-21 01:28 44.77954 19.65299 18982 ft 428 kts 47°
2026-04-21 01:28 44.79755 19.68542 18980 ft 413 kts 47°
2026-04-21 01:28 44.81489 19.71655 18986 ft 396 kts 47°
2026-04-21 01:29 44.83156 19.74647 18977 ft 381 kts 47°
2026-04-21 01:29 44.84758 19.77535 18996 ft 367 kts 45°
2026-04-21 01:29 44.86300 19.80314 18987 ft 354 kts 45°
2026-04-21 01:29 44.87723 19.83107 18630 ft 358 kts 58°
2026-04-21 01:30 44.88422 19.86621 17456 ft 390 kts 86°
2026-04-21 01:30 44.87967 19.90476 16236 ft 410 kts 114°
2026-04-21 01:30 44.86529 19.94022 15093 ft 422 kts 124°
2026-04-21 01:30 44.84912 19.97530 14106 ft 431 kts 124°
2026-04-21 01:31 44.83291 20.01079 13392 ft 429 kts 123°
2026-04-21 01:31 44.81719 20.04574 13142 ft 414 kts 123°
2026-04-21 01:31 44.80220 20.07949 13016 ft 398 kts 123°
2026-04-21 01:31 44.78802 20.11160 12902 ft 383 kts 123°
2026-04-21 01:32 44.77406 20.14311 12795 ft 367 kts 122°
2026-04-21 01:32 44.76121 20.17303 12713 ft 356 kts 123°
2026-04-21 01:32 44.74833 20.20198 12596 ft 342 kts 124°
2026-04-21 01:32 44.73572 20.22986 12504 ft 332 kts 123°
2026-04-21 01:33 44.72371 20.25692 12426 ft 321 kts 123°
2026-04-21 01:33 44.71203 20.28311 12299 ft 311 kts 123°
2026-04-21 01:33 44.70058 20.30906 11992 ft 311 kts 124°
2026-04-21 01:33 44.68914 20.33462 11772 ft 308 kts 123°
2026-04-21 01:34 44.67782 20.36016 11510 ft 307 kts 123°
2026-04-21 01:34 44.66666 20.38572 11294 ft 304 kts 124°
2026-04-21 01:34 44.65543 20.41087 11043 ft 303 kts 124°
2026-04-21 01:34 44.64423 20.43585 10810 ft 300 kts 124°
2026-04-21 01:35 44.63318 20.46056 10583 ft 298 kts 124°
2026-04-21 01:35 44.62219 20.48507 10311 ft 296 kts 124°
2026-04-21 01:35 44.61126 20.50945 10053 ft 294 kts 124°
2026-04-21 01:35 44.60044 20.53361 9789 ft 291 kts 124°
2026-04-21 01:36 44.58967 20.55762 9508 ft 290 kts 124°
2026-04-21 01:36 44.57900 20.58144 9232 ft 287 kts 124°
2026-04-21 01:36 44.56839 20.60505 8923 ft 283 kts 123°
2026-04-21 01:36 44.55797 20.62820 8568 ft 278 kts 123°
2026-04-21 01:37 44.54780 20.65082 8319 ft 270 kts 123°
2026-04-21 01:37 44.53798 20.67259 7991 ft 266 kts 122°
2026-04-21 01:37 44.52812 20.69448 7612 ft 265 kts 122°
2026-04-21 01:37 44.51848 20.71630 7251 ft 261 kts 116°
2026-04-21 01:38 44.51340 20.74021 7009 ft 250 kts 95°
2026-04-21 01:38 44.51545 20.76317 6876 ft 231 kts 58°
2026-04-21 01:38 44.52626 20.77835 6635 ft 218 kts 29°
2026-04-21 01:38 44.53921 20.78951 6312 ft 216 kts 30°
2026-04-21 01:39 44.55198 20.80063 5972 ft 216 kts 30°
2026-04-21 01:39 44.56474 20.81159 5640 ft 214 kts 26°
2026-04-21 01:39 44.57893 20.81545 5256 ft 211 kts 347°
2026-04-21 01:39 44.59100 20.80470 4992 ft 208 kts 308°
2026-04-21 01:40 44.59978 20.78857 4826 ft 208 kts 317°
2026-04-21 01:40 44.60970 20.77381 4730 ft 210 kts 310°
2026-04-21 01:40 44.61827 20.75701 4620 ft 214 kts 306°
2026-04-21 01:40 44.62635 20.73934 4520 ft 216 kts 304°
2026-04-21 01:41 44.63428 20.72151 4397 ft 215 kts 304°
2026-04-21 01:41 44.64210 20.70374 4288 ft 213 kts 304°
2026-04-21 01:41 44.64990 20.68610 4181 ft 212 kts 304°
2026-04-21 01:41 44.65765 20.66844 4089 ft 212 kts 304°
2026-04-21 01:42 44.66542 20.65080 3975 ft 212 kts 304°
2026-04-21 01:42 44.67316 20.63324 3887 ft 211 kts 304°
2026-04-21 01:42 44.68087 20.61572 3773 ft 210 kts 303°
2026-04-21 01:42 44.68846 20.59853 3664 ft 209 kts 303°
2026-04-21 01:43 44.69612 20.58118 3568 ft 209 kts 303°
2026-04-21 01:43 44.70375 20.56385 3474 ft 208 kts 304°
2026-04-21 01:43 44.71138 20.54655 3371 ft 209 kts 303°
2026-04-21 01:43 44.71904 20.52920 3270 ft 209 kts 303°
2026-04-21 01:44 44.72665 20.51195 3180 ft 203 kts 303°
2026-04-21 01:44 44.73378 20.49578 3056 ft 186 kts 304°
2026-04-21 01:44 44.74026 20.48112 2934 ft 170 kts 304°
2026-04-21 01:44 44.74656 20.46693 2758 ft 176 kts 303°
2026-04-21 01:45 44.75314 20.45207 2516 ft 183 kts 303°
2026-04-21 01:45 44.75994 20.43669 2255 ft 183 kts 302°
2026-04-21 01:45 44.76661 20.42162 2002 ft 179 kts 302°
2026-04-21 01:45 44.77311 20.40693 1770 ft 174 kts 302°
2026-04-21 01:46 44.77940 20.39271 1535 ft 167 kts 302°
2026-04-21 01:46 44.78553 20.37888 1325 ft 168 kts 302°
2026-04-21 01:46 44.79168 20.36495 1095 ft 167 kts 302°
2026-04-21 01:46 44.79778 20.35117 871 ft 165 kts 302°
2026-04-21 01:47 44.80378 20.33766 674 ft 160 kts 301°
2026-04-21 01:47 44.80961 20.32451 455 ft 156 kts 301°
2026-04-21 01:47 44.81514 20.31174 309 ft 146 kts 301°
2026-04-21 01:47 44.81950 20.30174 306 ft 70 kts 317°
2026-04-21 01:48 44.82085 20.29921 306 ft 30 kts 302°
2026-04-21 01:48 44.82145 20.29785 309 ft 11 kts 302°
2026-04-21 01:48 44.82124 20.29675 306 ft 16 kts 221°
2026-04-21 01:48 44.82010 20.29563 307 ft 24 kts 212°
2026-04-21 01:49 44.81891 20.29463 306 ft 16 kts 211°
2026-04-21 01:49 44.81874 20.29449 306 ft 3 kts 210°
2026-04-21 01:49 44.81839 20.29420 306 ft 8 kts 211°
2026-04-21 01:49 44.81794 20.29366 306 ft 7 kts 235°
2026-04-21 01:50 44.81773 20.29305 308 ft 7 kts 253°
2026-04-21 01:50 44.81772 20.29237 309 ft 7 kts 282°
2026-04-21 01:50 44.81790 20.29181 306 ft 0 kts 303°